Flag for Croatia Weather past 2 weeks in Zagreb, Croatia

Now
41 °F

Sunny.


Feels Like: 33 °F
Forecast: 36 / 45 °F
Wind: 14 mph from Northeast

Location: Zagreb / Pleso

Current Time: Mar 5, 2015 at 7:57:38 AM

Latest Report: Mar 5, 2015 at 7:30 AM


Visibility: 10 mi

Pressure: 30.27 "Hg

Humidity: 57%

Dew point: 27 °F

Location of ZagrebLocation

Historic Weather in Zagreb — Graph

°F

Zagreb temperature yesterday

Maximum temperature yesterday: 46 °F (at 1:00 PM)
Minimum temperature yesterday: 30 °F (at 1:30 AM)
Average temperature yesterday: 39 °F

Past Weeks' High & Low Weather Summary

 TemperatureHumidityPressure
High57 °F (Mar 2, 10:30 AM)100% (Feb 24, 1:30 AM)30.74 "Hg (Feb 24, 1:30 AM)
Low19 °F (Feb 19, 7:00 AM)23% (Mar 3, 4:00 PM)29.59 "Hg (Feb 22, 2:00 PM)
Average41 °F75%30.02 "Hg
* Reported Feb 18 6:00 AM — Mar 5 6:30 AM, Zagreb, Weather by CustomWeather, © 2015

Note: Actual official high and low records may vary slightly from our data, if they occured in-between our weather recording intervals... More about our weather records

Advertising

Zagreb weather history for previous 24 hours

 ConditionsComfort  
Time TempWeatherWind HumidityBarometerVisibility
6:30 AM
Thu, Mar 5
41 °FPassing clouds.12 mph61%30.27 "HgN/A
6:00 AM41 °FClear.14 mph57%30.27 "Hg10 mi
5:30 AM41 °FPassing clouds.16 mph61%30.27 "HgN/A
4:30 AM41 °FClear.15 mph57%30.24 "Hg10 mi
4:00 AM41 °FClear.13 mph61%30.24 "Hg10 mi
3:00 AM41 °FPassing clouds.14 mph61%30.24 "HgN/A
2:30 AM43 °FPassing clouds.15 mph61%30.24 "HgN/A
2:00 AM43 °FPassing clouds.14 mph66%30.24 "HgN/A
1:30 AM41 °FClear.8 mph70%30.24 "Hg10 mi
1:00 AM41 °FClear.9 mph70%30.24 "Hg10 mi
12:30 AM41 °FPassing clouds.9 mph70%30.24 "HgN/A
12:00 AM41 °FClear.8 mph70%30.24 "Hg10 mi
11:30 PM
Wed, Mar 4
41 °FClear.6 mph76%30.24 "Hg10 mi
10:30 PM41 °FClear.6 mph76%30.24 "Hg10 mi
10:00 PM43 °FClear.5 mph71%30.24 "Hg10 mi
9:30 PM43 °FPassing clouds.5 mph61%30.21 "HgN/A
9:00 PM45 °FPassing clouds.10 mph57%30.21 "HgN/A
8:30 PM43 °FLight rain. Passing clouds.18 mph66%30.21 "HgN/A
8:00 PM43 °FPassing clouds.6 mph76%30.21 "HgN/A
7:30 PM43 °FPassing clouds.10 mph71%30.21 "HgN/A
7:00 PM43 °FLight rain. Passing clouds.10 mph76%30.21 "HgN/A
6:30 PM43 °FLight rain. Mostly cloudy.12 mph76%30.21 "HgN/A
6:00 PM43 °FLight rain. Overcast.9 mph81%30.21 "HgN/A
5:30 PM45 °FLight rain. Overcast.7 mph81%30.18 "Hg5 mi
5:00 PM45 °FLight rain. Mostly cloudy.3 mph87%30.18 "Hg5 mi
4:30 PM45 °FLight rain. Partly sunny.1 mph87%30.18 "HgN/A
4:00 PM45 °FLight rain. Partly sunny.3 mph87%30.18 "HgN/A
3:30 PM45 °FLight rain. Partly sunny.5 mph87%30.15 "HgN/A
3:00 PM45 °FLight rain. Scattered clouds.8 mph87%30.15 "HgN/A
2:30 PM45 °FLight rain. Partly sunny.5 mph76%30.15 "HgN/A
2:00 PM46 °FLight rain. Clear.2 mph66%30.15 "HgN/A
1:30 PM46 °FPassing clouds.2 mph62%30.15 "HgN/A
1:00 PM46 °FPassing clouds.2 mph62%30.18 "HgN/A
12:30 PM45 °FPassing clouds.3 mph61%30.18 "HgN/A
12:00 PM45 °FPassing clouds.3 mph57%30.18 "HgN/A
11:30 AM43 °FSunny.2 mph61%30.18 "Hg10 mi
11:00 AM43 °FPassing clouds.3 mph61%30.18 "HgN/A
10:30 AM41 °FSunny.1 mph66%30.18 "Hg10 mi
10:00 AM41 °FSunny.No wind70%30.18 "Hg10 mi
9:30 AM39 °FSunny.1 mph81%30.18 "Hg10 mi
9:00 AM37 °FSunny.6 mph75%30.18 "Hg10 mi
8:30 AM37 °FSunny.2 mph81%30.18 "Hg10 mi
8:00 AM36 °FSunny.2 mph87%30.18 "Hg10 mi
7:30 AM36 °FSunny.No wind87%30.18 "Hg10 mi
7:00 AM34 °FSunny.No wind93%30.18 "Hg10 mi
Weather by CustomWeather, © 2015

See weather overviewHow to use our weather pages